Regional Weather Roundup
Issued by NWS

Home | Current Version | Previous Version | Text Only | Print | Product List | Glossary On
Versions: 1 2 3 4 5 6 7 8 9 10 11 12 13 14 15 16 17 18 19 20 21 22 23 24 25 26 27 28 29 30 31 32 33 34 35 36 37 38 39 40 41 42 43 44 45 46 47 48 49 50
000
ASUS45 KBOU 080710
RWRCO

WEATHER ROUNDUP FOR COLORADO
NATIONAL WEATHER SERVICE DENVER/BOULDER CO
100 AM MDT WED JUL 08 2015

NOTE: "FAIR" INDICATES FEW OR NO CLOUDS BELOW 12000 FEET WITH NO
SIGNIFICANT WEATHER AND/OR OBSTRUCTIONS TO VISIBILITY.

COZ001>005-013-030-031-080800-
...NORTHWEST COLORADO...

CITY           SKY/WX    TMP DP  RH WIND       PRES   REMARKS
CRAIG          CLOUDY    59  54  83 CALM      30.12F
HAYDEN         CLOUDY    55  50  82 E3        30.13F
MEEKER         LGT RAIN  56  53  90 CALM      30.14R
MOUNT WERNER   NOT AVBL
STEAMBOAT SPGS CLOUDY    53  52  97 CALM      30.15F
WALDEN         CLOUDY    50  46  87 SE5       30.21S
$$

COZ006>008-011-080800-
...WEST CENTRAL VALLEYS...

CITY           SKY/WX    TMP DP  RH WIND       PRES   REMARKS
GRAND JUNCTION LGT RAIN  59  58  96 S3        30.06S
MONTROSE       LGT RAIN  59  55  87 NW12      30.14R
EAGLE          CLOUDY    57  54  88 E3        30.16F
RIFLE          LGT RAIN  58  56  93 CALM      30.11S
DELTA          CLOUDY    62  57  83 N5        30.09F
NUCLA          CLOUDY    59  57  94 CALM      30.17S
$$

COZ017>023-064>068-080800-
...SOUTHWEST COLORADO...

CITY           SKY/WX    TMP DP  RH WIND       PRES   REMARKS
DURANGO        MOCLDY    55  52  89 N8        30.19S
CORTEZ         CLOUDY    60  55  83 CALM      30.12R
PAGOSA SPRINGS CLOUDY    52  51  95 CALM      30.25F
TELLURIDE      TSTM      49  49 100 CALM      30.32R VSB 1/2
WOLF CREEK PAS NOT AVBL
$$

COZ009-010-012-014-032>034-037-058>063-080800-
...CENTRAL COLORADO...

CITY           SKY/WX    TMP DP  RH WIND       PRES   REMARKS
ASPEN          CLOUDY    51  48  89 SW3       30.19F
BUENA VISTA    CLOUDY    52  49  91 CALM      30.22F
COPPER MTN     CLOUDY    45  36  70 S12       30.43F
BERTHOUD PASS  CLOUDY    36  28  75 SW8       30.47S
COTTONWOOD PAS NOT AVBL
GUNNISON       MOCLDY    52  45  76 N9        30.22F
KREMMLING      DRIZZLE   54  50  87 E5        30.20F
LEADVILLE      CLOUDY    46  46 100 S8        30.31F
MONARCH PASS   CLOUDY    41  37  87 SW14      30.54S FOG
SALIDA         MOCLDY    54  52  92 S3        30.27F
SUNLIGHT       CLOUDY    46  46 100 CALM      30.39F FOG
WILKERSON PASS FOG       41  41 100 SW7       30.41F VSB 1/2
$$

COZ069>075-080800-
...SAN LUIS VALLEY/SANGRE DE CRISTO MOUNTAINS...

CITY           SKY/WX    TMP DP  RH WIND       PRES   REMARKS
ALAMOSA        CLOUDY    50  48  93 S6        30.22S
LA VETA PASS   PTCLDY    41  39  93 MISG      30.33F
SAGUACHE       MOCLDY    48  46  93 CALM      30.23F
$$

COZ035-036-038>040-080800-
...NORTHERN COLORADO FRONT RANGE...

CITY           SKY/WX    TMP DP  RH WIND       PRES   REMARKS
DENVER INTL AP MOCLDY    54  51  90 SE7       30.07F FOG
DMNS CITY PARK   N/A     60  53  79 SW3       30.06F
AURORA         MOCLDY    58  53  83 S8        30.08F
FRONT RANGE AP MOCLDY    54  52  94 SE6       30.09F
ERIE MUNI ARPT CLOUDY    61  60  95 CALM      30.06F FOG
BOULDER MUN AP CLOUDY    61  59  94 CALM      30.06F
CENTENNIAL     MOCLDY    58  53  84 S13       30.09F HAZE
BROOMFIELD     CLOUDY    61  55  82 CALM      30.08F
FORT COLLINS   MOCLDY    61  55  82 CALM      30.07F
LONGMONT       CLOUDY    63  60  90 NW5       30.07F
$$

COZ041-046-047-076>085-087-088-080800-
...PIKES PEAK/PALMER DIVIDE AND SOUTHERN FOOTHILLS...

CITY           SKY/WX    TMP DP  RH WIND       PRES   REMARKS
COLO. SPRINGS  CLOUDY    58  53  84 CALM      30.15F FOG
A. F. ACADEMY  MOCLDY    55  54  94 W5        30.15F
ELLICOTT       CLOUDY   N/A N/A N/A CALM      30.14F HAZE
FALCON         CLOUDY    55  53  92 CALM      30.18F FOG
FORT CARSON    CLOUDY    58  58  98 S3        30.12F
LIMON          PTCLDY    53  44  71 S6        30.11F
MONUMENT HILL  MOCLDY    52  50  93 MISG      30.17F
TRINIDAD       PTCLDY    57  53  86 W5        30.10F FOG
$$

COZ042>045-048>051-090-091-080800-
...NORTHEAST COLORADO...

CITY           SKY/WX    TMP DP  RH WIND       PRES   REMARKS
GREELEY ARPT   MOCLDY    63  55  77 SE5       30.06S
AKRON          CLOUDY    62  45  53 SE17      30.09F
BURLINGTON     MOCLDY    62  45  53 SE12      30.09F
WRAY           CLOUDY    63  47  56 SE8       30.09F
STERLING       CLOUDY    64  46  52 S13       30.04F
HOLYOKE        CLOUDY    63  50  63 SE8       30.08F
FORT MORGAN    CLOUDY    64  43  46 SE10G16   30.07F
$$

COZ086-089-092>099-080800-
...SOUTHEAST COLORADO...

CITY           SKY/WX    TMP DP  RH WIND       PRES   REMARKS
PUEBLO         MOCLDY    60  57  89 N3        30.06F FOG
LA JUNTA       MOCLDY    64  49  57 SE9       30.05F
LAMAR          MOCLDY    63  46  54 S6        30.05F
SPRINGFIELD      N/A     59  49  69 S10       30.09F
$$


USA.gov is the U.S. government's official web portal to all federal, state and local government web resources and services.